Wind_Speed
8 9 9 9 8 8 7 6 6 6 6 6 5 5 6 6 6 5 6 5 5 5 6 6 6 6 6 7 7 8 8 9 9 8 8 7 7 8 8 8 9 11 12 12 12 13 13 13 13 12 12 12 12 13 13 18 16 11 13 14 14 15 15 12 9 12 8 10 14 13 12 9 15 13 8 10 9 10 14 14 17 15 10 13 16 11 8 10
8 8 8 9 8 7 7 6 5 5 5 4 4 4 4 5 5 5 5 4 4 4 4 4 4 4 5 5 5 6 7 7 7 6 7 7 7 8 8 8 8 9 11 11 12 12 12 12 11 10 11 11 12 12 11 15 17 15 15 16 16 16 14 8 9 14 5 5 4 7 9 9 15 14 9 9 9 9 10 13 14 13 13 15 16 13 13 13
8 8 8 9 8 7 6 6 5 4 4 3 3 3 3 4 4 4 4 3 4 3 3 3 2 3 3 3 3 3 4 4 5 4 5 7 7 7 7 8 8 8 9 11 13 13 15 15 10 6 8 9 10 10 9 10 12 15 16 19 18 15 9 4 12 11 5 6 4 4 6 8 10 10 10 10 9 11 12 16 16 15 16 18 18 16 15 15
7 7 7 8 8 7 6 5 5 4 4 3 3 3 3 3 3 3 3 3 3 3 2 2 1 2 2 2 2 2 2 2 3 2 3 5 6 6 6 7 7 7 8 10 12 12 17 18 13 5 4 7 8 8 8 8 9 12 17 18 16 15 11 10 10 7 7 7 8 7 5 5 7 5 8 11 11 12 14 20 22 21 22 22 21 18 18 17
6 7 6 7 7 6 5 5 4 4 3 3 3 3 2 2 2 2 3 3 3 3 2 2 2 3 3 4 4 4 3 2 2 4 4 4 6 5 5 5 6 7 8 9 10 12 17 18 17 9 6 8 7 6 8 9 9 10 15 15 12 17 16 14 15 7 3 7 8 5 4 4 7 6 5 7 11 14 13 16 21 23 26 25 21 20 22 18
6 6 6 6 6 6 5 5 4 4 3 3 3 2 2 1 1 1 2 3 3 3 3 3 4 4 4 6 6 6 5 4 3 4 4 4 4 5 5 5 5 6 8 9 10 13 16 17 18 12 9 10 11 10 8 8 11 12 14 12 9 13 13 16 21 12 5 13 10 2 3 5 5 7 5 5 9 13 12 14 21 25 25 23 18 18 20 17
5 5 5 5 6 6 5 5 4 4 4 3 3 2 2 2 1 1 1 2 3 3 3 4 5 5 6 8 8 6 5 4 3 4 6 5 4 5 5 5 6 7 9 9 10 12 14 15 15 11 9 10 10 9 8 9 11 14 16 12 9 10 13 20 21 16 9 10 7 2 5 7 7 8 7 7 8 9 9 14 22 26 23 20 19 19 18 17
5 5 5 5 5 6 6 5 4 3 3 3 3 3 2 2 2 2 2 1 2 3 5 5 6 7 8 10 8 6 4 5 5 6 8 6 3 5 5 6 7 8 11 12 12 13 14 15 11 7 8 11 8 6 6 10 13 15 17 15 13 8 10 20 19 17 16 12 11 9 7 7 6 9 8 8 10 10 8 12 19 22 21 19 18 18 18 18
4 4 4 5 5 5 5 5 4 3 3 3 3 3 3 2 3 3 3 3 3 4 5 6 7 8 10 10 8 7 7 6 7 8 8 5 3 5 6 7 10 12 14 14 15 17 16 10 7 4 4 8 8 12 11 13 18 17 16 15 15 10 8 14 12 13 17 18 17 16 14 11 8 11 10 10 11 13 13 13 16 18 19 17 16 17 18 20
4 4 5 5 5 5 5 5 5 3 3 2 2 2 3 2 2 3 3 3 4 4 5 7 8 10 11 9 7 6 6 5 6 8 6 3 3 4 7 9 12 15 15 16 16 15 12 7 4 5 10 9 11 16 14 13 15 14 14 15 15 14 13 13 13 13 15 16 17 18 18 15 13 14 13 14 9 10 15 15 18 20 20 20 20 20 21 23
3 4 4 5 5 5 4 5 5 4 3 2 2 2 2 2 2 2 2 2 3 4 5 7 9 11 11 9 6 3 2 5 6 5 3 3 4 5 7 11 14 16 17 16 13 7 4 4 9 11 11 12 11 11 11 11 10 8 11 15 14 14 14 13 15 15 13 13 12 14 16 16 17 16 15 17 14 10 13 10 16 23 24 23 24 26 26 28
3 3 4 4 4 5 4 4 4 4 4 3 2 1 2 2 2 2 1 2 2 3 4 8 10 11 10 8 4 2 4 4 6 6 6 5 5 6 8 11 14 16 18 18 14 4 6 9 14 14 12 12 9 6 9 9 9 8 10 15 13 11 13 15 19 17 13 13 11 11 15 17 21 20 17 20 19 18 15 10 15 21 22 22 24 25 26 28
3 3 3 4 4 4 4 4 4 4 4 3 3 2 1 1 1 1 1 2 2 3 5 8 9 10 9 6 3 1 6 2 2 4 7 6 6 7 8 10 12 13 14 17 16 12 12 15 17 19 15 11 7 6 10 6 9 11 9 13 15 13 15 18 21 19 14 15 13 12 15 16 19 20 19 20 22 23 21 17 18 19 21 22 23 24 26 27
4 3 3 3 3 3 3 4 3 3 3 4 3 2 2 1 1 1 1 2 2 3 4 7 8 9 7 4 1 1 4 3 2 2 4 6 6 6 7 7 8 9 10 14 14 12 15 17 17 21 18 14 9 8 12 9 8 11 10 13 15 17 20 20 22 21 15 15 15 15 17 16 15 15 17 21 23 23 22 24 22 19 21 24 24 25 27 27
6 4 3 2 2 2 3 3 3 3 3 3 3 3 2 1 1 1 1 2 3 3 5 7 7 7 6 4 3 1 3 3 3 3 3 5 5 6 7 7 6 8 9 11 9 8 12 14 15 20 18 11 6 7 10 11 9 11 13 14 16 19 20 18 20 23 19 18 21 20 17 13 9 10 13 20 28 24 22 26 23 19 22 26 26 26 27 26
9 7 5 3 2 2 2 2 2 2 2 3 3 3 3 2 1 0 0 2 2 3 5 6 6 5 4 3 3 1 3 5 6 5 5 5 4 6 4 3 5 8 8 8 9 8 9 11 12 17 18 10 8 9 10 12 12 13 15 16 16 19 22 20 19 23 23 22 23 22 16 12 7 8 12 14 28 28 25 26 21 19 23 25 25 25 26 25
10 9 8 6 4 2 1 1 1 1 2 2 3 3 3 2 1 0 0 1 2 4 4 2 2 2 4 4 4 2 4 6 6 6 5 5 6 6 3 4 8 5 5 6 6 6 7 10 10 14 18 12 9 9 11 14 15 14 17 19 17 16 21 21 18 22 26 24 22 19 16 14 10 10 8 9 24 27 26 21 16 19 22 24 25 24 25 25
11 10 9 8 6 5 3 1 1 1 1 2 3 3 3 3 2 1 1 1 2 4 3 1 1 2 3 5 8 5 4 4 3 5 5 4 8 8 6 9 8 4 4 5 4 4 5 7 8 10 12 12 11 10 12 16 14 10 9 13 13 14 17 17 13 23 27 24 20 17 17 14 8 6 6 10 15 17 20 17 15 19 22 24 25 24 24 24
10 10 9 8 7 7 5 4 2 1 2 2 2 2 2 2 2 1 1 2 4 4 3 1 1 2 3 8 7 1 4 7 4 6 7 5 8 9 8 11 9 5 7 6 3 3 5 6 6 9 10 10 12 12 13 15 15 12 6 5 8 10 10 12 11 23 25 25 23 17 18 14 6 6 9 11 14 16 17 19 17 19 22 24 25 24 23 22
9 9 9 8 8 7 6 6 5 3 1 3 3 2 2 2 1 1 3 6 7 5 2 2 1 1 3 7 2 7 6 9 6 6 6 7 7 8 9 10 11 11 12 9 5 3 5 8 8 10 9 9 12 11 13 16 17 16 13 11 10 9 6 8 4 16 19 22 20 15 16 15 12 11 11 11 15 19 19 20 20 20 23 25 26 26 25 23
7 8 8 8 7 7 6 6 6 5 3 2 4 4 4 3 2 5 5 7 10 9 4 1 1 3 1 1 6 10 9 8 6 3 2 4 5 7 9 9 10 12 14 13 10 6 8 11 11 11 9 12 14 12 12 15 17 17 16 15 14 13 11 11 4 8 12 17 15 12 16 17 16 16 17 16 16 19 21 20 21 21 23 25 27 28 26 24
6 7 7 7 7 6 6 6 6 5 4 2 2 4 5 5 5 9 7 5 8 10 8 6 3 7 7 5 9 12 9 8 7 5 3 5 6 6 7 7 7 8 8 11 11 10 12 15 15 13 13 16 17 16 15 14 15 17 16 16 17 18 18 13 4 9 12 15 14 14 18 19 19 20 22 22 20 22 23 22 22 22 22 25 27 25 24 23
7 7 7 7 6 6 6 5 6 7 7 5 4 3 6 9 6 10 9 4 3 3 4 5 4 7 9 9 12 14 11 10 9 11 12 8 8 5 10 8 7 6 6 8 11 13 15 17 14 10 14 16 16 17 16 16 16 16 16 16 16 17 16 12 4 6 8 10 11 14 17 18 20 22 25 24 24 26 27 25 24 25 24 25 27 24 21 19
8 8 7 7 7 6 5 6 6 7 8 7 9 10 10 11 7 6 8 5 4 2 2 4 5 7 9 11 11 11 10 8 7 13 16 12 7 4 12 11 9 10 10 11 15 17 18 17 12 9 14 17 16 16 14 16 18 18 17 16 16 16 13 13 11 5 5 9 10 12 16 19 20 22 25 24 23 25 27 26 26 27 26 25 26 24 22 20
9 9 8 8 7 6 7 5 3 6 9 9 10 12 11 10 7 2 3 5 6 4 3 3 6 8 9 12 11 7 7 7 7 10 11 9 6 6 10 10 12 14 14 15 18 21 22 20 16 15 16 16 17 17 15 15 17 19 19 17 18 20 17 16 15 12 11 11 9 11 12 14 18 21 21 19 18 18 22 24 24 24 23 24 24 22 22 23
8 8 8 8 8 8 7 5 4 6 9 7 7 9 9 6 5 2 2 4 4 4 4 3 3 5 6 8 10 3 5 7 9 10 8 8 9 10 12 11 13 14 14 14 16 18 20 19 19 19 19 17 15 14 13 12 12 16 17 15 13 15 17 16 16 15 12 10 10 13 12 11 17 21 17 15 17 16 21 23 25 24 22 23 22 20 20 20
7 7 7 7 7 7 7 6 7 7 6 5 6 7 5 4 3 3 5 5 1 4 5 5 3 2 2 7 7 3 2 2 10 13 10 10 8 10 16 16 14 13 11 12 15 15 13 12 13 17 17 15 13 12 10 10 12 16 16 12 9 12 14 14 17 19 14 13 14 15 16 15 18 22 15 13 16 16 22 24 24 25 25 27 26 22 22 21
6 6 6 6 7 7 6 7 7 7 6 7 7 5 4 3 2 3 5 3 0 2 6 8 5 4 4 6 7 8 6 3 8 11 11 12 9 7 15 15 14 17 13 12 18 14 8 8 9 11 12 10 11 13 12 13 16 18 15 10 11 14 14 10 11 14 11 13 15 15 15 12 15 23 19 15 17 15 21 26 25 24 22 25 26 24 23 22
5 5 5 5 6 6 6 6 6 7 6 7 6 4 4 3 1 3 3 1 1 2 5 8 7 6 6 5 3 6 9 7 7 6 8 12 10 8 11 11 11 16 15 14 16 12 10 10 8 8 9 9 12 15 13 14 17 17 12 10 10 12 16 13 9 10 10 10 15 17 16 10 12 24 24 17 16 15 18 25 26 23 19 18 22 22 22 22
5 5 5 5 5 5 5 5 5 5 6 6 5 4 4 4 3 2 0 2 4 2 1 6 8 8 6 6 5 4 3 6 9 8 8 10 9 8 8 10 11 13 15 15 13 13 13 10 9 9 8 7 11 13 13 14 17 17 12 11 12 11 14 15 13 14 10 8 17 20 19 13 10 20 24 18 15 16 16 22 25 21 17 16 18 18 21 23
5 5 4 5 5 5 5 4 3 4 6 5 4 4 4 3 5 2 2 5 5 1 2 6 8 8 6 7 9 10 5 7 12 13 11 9 8 8 6 7 11 12 14 15 13 15 14 12 13 15 13 10 11 15 16 13 12 13 7 5 9 10 11 12 14 13 5 6 20 22 20 18 12 17 23 20 15 10 7 10 18 19 18 17 15 15 17 22
5 5 5 5 4 5 5 4 4 4 4 3 2 4 6 4 4 3 3 7 4 2 2 5 6 7 7 8 9 9 9 10 12 13 14 11 11 13 11 8 9 11 12 12 12 13 14 14 15 18 21 17 12 13 16 12 8 10 8 5 5 5 5 7 8 7 6 11 20 18 15 15 16 19 20 18 16 10 4 5 10 14 16 16 16 18 17 17
5 5 5 4 4 5 5 5 5 4 3 2 1 4 6 3 3 7 8 7 4 2 6 8 7 7 8 12 11 9 11 13 10 9 12 12 12 14 13 10 8 11 12 11 11 11 11 11 11 15 20 18 14 12 13 12 10 13 15 11 8 4 1 3 4 3 6 10 12 12 10 9 15 20 18 16 14 14 13 10 10 11 13 14 15 17 18 16
5 5 4 4 5 5 5 5 4 4 3 2 2 3 5 3 5 10 10 5 5 7 9 12 11 7 7 12 13 14 16 14 9 7 9 13 13 12 11 12 11 12 14 13 11 10 9 9 9 11 13 13 13 13 12 13 14 16 18 17 15 12 7 4 3 3 3 4 8 10 7 5 9 11 10 9 8 11 12 10 10 12 15 18 15 13 16 16
5 4 4 4 4 5 7 6 5 5 4 3 4 4 4 6 8 10 9 6 7 10 11 13 13 12 11 12 15 17 17 13 8 8 10 12 13 12 13 14 14 15 16 14 10 8 9 12 12 12 11 10 13 15 15 15 16 15 15 19 22 20 18 13 9 8 6 6 9 11 10 14 17 15 13 13 12 11 11 14 15 12 12 16 13 10 14 16
6 4 3 2 4 8 9 8 7 6 4 5 6 4 3 6 9 10 9 8 9 11 13 13 11 12 12 13 15 11 7 8 9 9 12 12 11 13 16 17 18 20 21 18 13 9 9 13 15 14 12 12 14 15 16 15 13 11 11 15 17 16 20 18 12 12 8 4 7 10 14 22 22 18 16 17 18 16 14 16 17 15 14 15 15 13 12 15
8 7 6 5 7 10 10 10 9 7 7 8 7 5 3 5 7 8 10 12 12 12 12 11 10 10 12 14 15 10 7 7 8 9 11 12 11 12 14 14 12 12 15 16 12 8 9 15 20 20 16 14 12 12 15 15 12 13 15 16 14 13 16 13 5 4 3 3 7 10 13 17 14 10 11 13 16 17 16 14 14 17 17 13 13 16 15 15
11 11 8 6 6 9 11 12 11 10 11 11 7 5 6 6 7 7 11 14 15 14 12 10 10 10 11 13 14 13 13 12 9 10 10 10 11 12 14 14 10 6 7 9 7 6 8 13 18 20 17 14 13 14 14 16 16 19 19 16 14 10 10 9 4 1 2 1 4 6 9 14 17 15 15 16 14 10 9 6 5 8 11 11 11 13 14 14
12 13 11 8 7 10 12 12 12 12 13 10 5 4 6 6 6 5 8 13 15 16 14 9 9 10 11 11 12 13 14 13 14 13 10 8 11 14 16 17 14 11 10 10 8 9 11 11 13 17 16 16 16 15 15 15 15 19 21 20 20 14 8 7 5 2 1 3 5 4 4 12 17 16 13 14 13 9 7 6 6 5 4 12 13 11 12 13
11 12 12 10 10 13 13 12 12 11 10 7 5 8 8 8 8 7 8 15 17 16 13 9 9 12 13 12 13 13 12 13 15 14 13 12 12 13 15 14 12 9 8 7 9 11 12 11 13 16 17 18 18 15 14 14 13 14 17 19 19 15 12 11 11 12 7 1 1 1 2 12 15 11 11 14 16 14 12 10 10 9 4 6 8 8 10 15
10 10 8 9 12 13 13 12 10 8 9 9 9 11 10 11 13 14 14 13 13 13 12 11 10 11 13 13 14 14 13 14 14 14 15 14 13 11 7 4 5 9 9 6 9 12 12 12 15 18 18 20 21 18 16 17 17 16 16 18 17 16 15 10 9 18 15 5 7 4 3 20 27 18 15 16 14 12 14 15 14 13 9 6 5 5 4 9
9 7 6 11 14 12 11 11 7 6 8 9 9 10 11 12 12 13 13 11 11 12 11 11 10 10 10 10 11 11 12 13 14 14 14 12 12 12 7 5 6 10 12 11 11 13 13 14 18 21 22 23 24 23 21 21 22 22 22 21 19 17 18 11 6 12 13 10 17 13 7 26 34 19 11 11 7 6 9 12 13 11 10 10 9 8 7 9
10 8 7 11 13 10 11 10 5 5 9 9 7 7 10 13 13 13 14 12 11 11 9 9 10 11 12 11 11 12 12 14 15 14 15 15 14 14 14 13 12 9 8 9 11 13 13 12 15 19 21 23 24 22 21 20 19 21 22 19 13 10 14 14 10 11 10 8 14 9 6 21 25 12 11 12 9 8 10 12 12 11 12 12 11 12 12 11
11 8 5 8 12 12 12 10 8 10 12 14 14 12 12 15 16 14 14 13 12 13 13 13 13 14 14 13 13 13 12 14 14 13 14 15 15 13 13 14 14 15 14 12 13 15 13 11 12 13 13 15 15 12 12 13 10 10 12 11 8 5 7 7 6 7 8 10 12 6 6 25 30 20 20 20 17 18 19 18 17 16 17 16 14 13 12 12
12 9 6 9 11 11 8 6 9 12 12 14 18 18 17 19 18 14 12 13 16 17 17 17 14 13 14 13 14 14 12 13 15 14 15 15 14 14 12 14 17 17 16 15 16 17 15 15 17 13 8 7 8 4 4 9 12 14 15 14 13 12 11 12 10 8 8 11 14 10 12 27 34 27 24 22 23 26 23 21 21 21 21 21 20 18 16 16
15 13 11 12 11 7 3 2 5 9 11 15 19 20 21 22 19 15 12 12 14 13 14 15 14 14 15 14 14 14 14 15 15 16 15 14 15 16 15 15 16 14 13 15 16 15 15 17 18 18 18 20 20 18 16 18 22 24 24 23 21 19 17 17 14 13 14 14 18 20 21 25 31 30 26 23 23 24 24 26 27 27 28 28 29 29 29 29
17 15 16 17 13 8 7 8 11 14 15 18 21 22 22 19 16 15 12 10 12 13 14 15 13 11 11 12 12 14 15 16 17 18 18 17 19 20 19 16 11 10 10 12 13 12 14 17 17 17 22 24 24 25 23 23 25 28 29 31 31 27 22 20 19 20 20 17 19 24 24 24 31 37 35 30 27 27 29 30 31 32 33 34 34 33 31 30
17 16 18 20 17 15 15 16 17 19 20 19 19 18 17 15 14 15 15 12 11 10 11 12 11 10 10 10 12 16 18 18 17 16 17 18 19 21 23 23 14 7 6 8 10 12 16 19 16 15 19 20 19 20 20 20 23 25 27 30 31 28 24 22 22 23 22 20 22 26 26 25 32 40 40 36 33 32 30 28 28 31 33 34 33 27 22 21
19 18 18 19 19 19 20 20 19 19 18 15 13 12 12 12 11 12 12 12 13 13 11 9 9 11 12 12 13 18 18 18 17 15 16 19 20 19 21 24 24 18 13 12 11 12 16 18 14 15 22 25 22 19 19 20 22 25 29 31 29 27 25 25 25 25 25 26 28 29 30 31 35 39 39 36 33 32 30 30 31 32 32 32 29 24 22 22
21 21 19 19 19 19 18 17 16 16 14 13 13 12 12 11 11 11 11 9 12 16 15 13 11 12 13 14 14 16 17 17 18 18 20 21 22 22 21 23 25 25 23 22 19 16 16 18 15 14 22 27 21 17 18 19 21 26 31 30 27 26 26 27 28 28 29 31 32 30 32 37 40 38 36 36 36 34 33 31 28 25 25 26 26 25 25 25
21 21 21 21 19 17 17 15 12 11 11 11 12 12 12 10 8 12 16 14 12 14 14 16 19 19 19 17 16 16 17 17 18 19 21 22 23 23 23 23 23 24 25 26 23 19 18 21 21 17 21 26 20 15 18 19 22 30 34 32 29 29 29 28 28 28 28 29 31 31 33 37 37 35 32 32 33 32 30 27 23 22 25 28 27 27 28 29
19 19 20 21 20 17 16 15 11 7 8 10 11 12 15 17 14 13 16 15 13 10 9 13 18 19 18 17 16 18 20 20 19 19 19 22 25 26 27 28 27 24 24 24 24 23 20 22 21 17 20 25 16 10 16 18 19 25 27 24 22 21 22 24 23 23 23 23 25 28 28 28 28 29 28 26 26 29 29 28 28 29 30 30 30 30 30 30
Wind_Direction
333 335 339 340 334 331 329 324 324 317 308 298 290 283 273 268 262 263 263 260 257 254 253 251 251 248 248 249 251 253 253 256 258 260 259 254 250 241 230 218 216 219 219 216 212 209 208 209 208 203 203 206 199 195 180 166 170 192 224 243 252 244 224 211 232 304 330 155 171 178 173 170 172 171 156 165 179 183 179 189 208 204 204 227 227 213 197 212
334 336 340 344 338 332 331 328 328 325 317 307 299 287 272 263 255 256 258 258 257 251 251 246 244 241 241 245 248 253 256 263 264 266 266 257 245 236 226 216 214 213 210 206 203 200 199 197 194 197 197 199 196 190 185 175 173 187 213 239 244 225 203 203 283 301 291 175 187 184 184 185 183 187 184 174 175 189 198 203 217 212 199 213 217 201 198 214
331 338 342 345 343 335 330 330 328 328 326 319 311 295 277 265 257 255 250 253 253 247 243 231 226 220 223 233 237 248 254 259 259 260 258 247 239 235 221 212 213 208 200 198 195 189 186 174 152 171 189 185 180 175 186 186 188 195 205 231 233 209 199 292 309 293 232 157 133 173 202 190 190 212 209 195 209 220 226 227 230 231 222 221 217 211 215 219
324 335 341 345 345 337 329 329 326 327 330 329 324 307 291 273 264 260 250 249 244 238 226 194 164 180 183 187 180 182 215 245 246 230 222 226 227 226 218 207 206 205 199 195 192 190 186 163 135 143 196 176 153 161 204 217 216 214 214 225 218 212 244 295 306 283 241 202 143 112 105 173 208 248 218 202 218 219 228 241 244 249 248 238 228 226 224 220
314 326 337 341 342 339 328 325 325 330 340 343 343 336 322 287 266 255 239 234 230 224 197 158 151 161 150 147 148 156 160 103 126 160 169 196 206 202 197 188 189 194 191 188 185 192 185 154 137 160 207 197 174 183 214 225 232 231 235 245 236 231 245 272 280 267 181 162 155 138 98 154 212 226 218 206 217 211 215 240 251 255 246 233 228 230 225 219
308 315 327 333 337 339 330 324 328 335 349 355 1 12 16 355 251 221 219 222 215 209 180 164 169 158 147 150 151 156 137 79 106 142 137 154 168 166 160 159 171 174 175 181 175 189 187 151 140 162 200 208 202 213 221 226 236 236 245 263 260 250 260 271 272 262 165 129 133 178 172 174 201 197 176 169 210 215 211 227 239 241 231 219 214 223 226 222
307 309 315 325 331 338 337 328 327 336 351 3 16 34 49 71 96 141 177 200 194 183 167 168 171 154 153 157 156 161 131 72 90 110 94 97 118 135 138 144 156 167 164 159 161 184 182 143 135 156 190 202 190 197 211 222 236 243 248 257 260 275 280 263 262 263 232 157 156 255 191 202 222 208 194 184 211 229 213 204 219 226 220 211 202 207 221 224
310 313 314 321 325 334 340 334 328 333 348 11 22 35 58 79 84 89 99 130 152 150 161 168 164 154 158 161 165 175 130 85 100 98 81 77 92 115 123 133 141 159 150 142 152 157 141 122 121 140 192 202 185 183 206 221 229 242 253 255 249 266 280 258 259 266 253 224 230 250 202 190 211 202 194 204 228 251 233 192 201 213 211 206 203 207 219 230
316 324 322 321 324 328 337 341 336 328 339 7 21 35 48 66 78 81 87 96 117 136 158 162 156 155 160 167 177 169 134 116 118 100 78 68 88 111 122 138 145 148 142 150 155 133 120 124 117 99 250 239 245 253 255 244 232 238 254 254 242 251 275 262 277 286 265 247 240 242 215 188 183 185 177 189 223 250 245 225 212 211 212 215 220 226 236 245
326 331 329 324 326 325 332 343 341 336 334 352 15 34 44 55 69 74 83 90 110 135 155 158 158 158 160 170 181 167 145 135 120 98 78 79 117 126 134 148 151 147 151 161 150 125 129 167 202 266 276 271 265 258 263 260 238 237 248 238 234 250 255 254 278 285 275 264 243 236 227 210 196 190 185 178 194 243 231 231 240 239 242 245 248 252 255 258
341 335 334 330 329 329 333 342 345 348 339 339 2 21 46 51 55 72 82 89 113 136 156 159 160 159 159 169 175 202 200 144 126 112 112 135 148 157 158 158 153 155 163 152 122 106 151 216 251 253 248 243 245 247 259 262 242 238 229 221 235 255 250 245 258 262 267 268 240 226 228 222 210 204 209 193 184 217 211 222 254 255 257 258 259 261 262 264
351 342 340 335 335 335 335 341 347 353 351 349 348 357 34 44 58 66 73 90 123 140 160 162 165 165 166 175 162 323 296 154 141 153 159 160 164 183 192 177 164 167 166 141 125 166 240 257 246 225 214 219 223 239 255 249 235 237 216 220 246 262 253 247 250 256 257 247 235 229 227 227 223 216 223 221 211 217 220 241 251 249 256 256 257 260 263 266
345 341 344 344 347 344 343 348 351 356 3 1 353 358 10 36 63 51 80 88 118 141 162 167 173 176 177 191 162 357 308 281 162 163 163 170 175 188 201 190 177 178 171 151 155 184 210 234 226 209 206 195 184 241 251 239 235 241 225 233 257 264 254 250 252 256 247 234 235 236 229 231 239 229 223 232 233 228 232 244 238 239 250 251 252 258 264 269
3 343 338 345 352 352 356 357 357 6 10 11 11 7 2 23 55 50 83 86 119 141 164 173 180 191 197 227 213 21 320 312 283 241 176 181 191 194 191 184 183 191 186 172 178 194 208 226 222 207 202 182 177 238 245 238 241 244 241 244 255 258 253 249 250 249 237 227 226 224 228 241 265 262 236 233 237 230 229 235 229 229 241 245 250 258 265 270
29 21 7 349 344 352 1 3 9 20 19 28 27 15 20 14 17 62 81 96 122 136 154 172 188 203 216 251 271 306 347 325 266 248 211 193 197 200 189 179 187 200 200 194 201 218 219 223 222 211 200 185 206 262 259 250 247 241 245 248 246 250 258 258 248 240 230 221 218 216 230 257 289 286 260 241 235 224 219 229 226 222 233 242 248 254 261 265
35 35 36 25 11 351 346 360 12 27 38 46 44 36 35 13 15 75 91 105 121 137 153 179 196 206 236 280 286 324 348 304 259 232 218 212 212 201 187 202 218 208 210 222 224 235 229 215 218 210 197 198 232 254 262 259 255 242 239 247 247 247 257 269 262 241 225 212 213 215 233 265 266 281 298 248 226 218 215 226 222 215 231 241 245 251 256 259
36 37 38 36 36 27 3 327 328 36 52 61 67 58 48 41 45 16 93 138 138 130 134 167 178 253 291 314 319 327 328 289 257 245 229 224 233 207 170 263 270 242 220 244 233 228 226 212 218 209 202 215 221 229 251 252 258 250 235 240 248 248 253 269 267 231 214 204 209 219 238 267 267 279 303 197 202 208 209 218 215 213 229 239 243 248 253 257
35 35 35 36 37 35 33 18 243 210 125 87 82 79 77 70 56 43 112 188 167 134 116 107 64 340 321 336 331 311 293 292 271 268 255 237 241 227 200 221 251 291 261 268 252 220 221 212 220 213 211 225 212 211 237 243 255 260 236 237 253 259 256 272 249 205 203 203 208 222 233 256 282 267 239 191 201 216 217 225 222 216 225 235 241 243 248 254
33 33 33 35 35 37 36 31 32 210 201 160 112 108 113 87 64 59 208 208 179 152 107 78 37 11 8 356 357 193 262 307 310 279 266 246 235 236 229 205 201 243 260 265 248 202 220 215 225 223 210 217 220 224 237 246 258 265 259 244 289 302 282 291 249 199 201 205 206 218 227 237 260 246 250 254 249 247 251 252 235 222 224 231 237 237 242 251
29 31 32 34 38 40 37 36 40 42 111 179 175 197 225 183 139 281 232 204 195 179 100 57 157 185 345 343 261 207 277 308 292 274 268 261 239 231 233 204 188 210 224 227 237 254 234 223 232 234 215 220 243 247 243 249 255 264 269 257 283 307 312 335 263 191 196 205 206 215 225 236 248 244 242 247 240 232 243 255 243 229 226 230 234 235 240 248
24 29 34 35 40 41 39 42 40 42 58 156 186 221 257 232 243 281 242 199 203 205 204 201 198 242 297 22 237 253 294 303 274 260 291 297 264 226 221 211 199 212 215 206 217 244 229 230 240 238 233 243 253 257 251 247 247 258 271 269 271 272 288 329 315 209 209 207 210 220 228 236 239 237 230 230 236 226 229 251 252 234 225 229 235 236 242 247
24 26 31 36 41 41 41 46 44 46 52 45 222 236 279 295 271 260 256 220 214 221 219 204 216 254 232 194 246 263 276 278 258 249 305 344 312 249 214 228 226 224 223 204 216 237 232 244 255 246 245 254 257 260 261 258 254 259 266 273 274 269 284 309 257 213 215 208 221 235 234 237 236 243 246 240 243 236 231 246 256 248 239 232 232 235 242 247
31 27 29 34 37 39 39 41 47 50 51 37 355 334 337 333 298 254 262 257 219 222 217 219 233 260 245 226 251 266 266 264 257 261 265 281 313 260 198 225 245 233 242 226 226 236 235 247 266 261 247 250 255 259 266 272 271 271 271 272 276 273 280 299 279 199 204 217 240 251 249 252 248 255 265 261 262 255 239 241 254 258 253 235 227 232 238 243
37 33 31 31 29 32 29 27 48 55 49 33 14 11 358 349 345 276 260 237 225 158 158 256 257 266 261 237 253 280 271 250 248 263 256 254 298 240 198 212 233 242 249 241 237 239 240 245 259 262 243 241 248 255 270 281 280 277 276 273 277 280 269 272 289 289 263 263 266 278 281 274 266 268 272 271 274 263 241 241 250 252 248 232 223 228 230 234
33 34 35 33 31 28 21 18 54 60 43 27 13 7 354 352 7 342 234 230 241 196 184 246 234 239 241 242 265 277 248 243 255 265 255 250 266 229 217 222 235 251 249 245 251 247 243 241 246 256 250 245 250 257 267 275 282 281 278 275 274 282 277 267 277 286 290 291 286 295 293 279 280 284 280 277 278 257 230 235 244 243 241 230 227 235 233 231
24 27 28 30 32 31 25 16 26 39 35 21 355 354 354 3 21 41 26 306 262 203 228 243 202 216 215 254 276 229 219 252 252 255 253 264 265 233 235 237 236 252 247 249 263 257 256 253 247 247 245 247 252 259 264 263 276 279 279 282 273 277 282 276 275 275 281 290 291 292 277 267 286 287 279 283 283 247 219 230 239 240 244 241 242 249 248 246
10 12 16 20 22 29 28 23 26 27 23 16 356 355 8 25 18 17 4 336 261 173 217 217 219 281 258 267 260 197 292 249 211 231 244 268 279 236 237 235 229 244 248 264 273 269 275 265 237 232 236 243 245 244 249 253 267 271 272 280 271 267 280 285 268 258 270 287 284 284 271 265 279 281 280 290 289 250 223 233 238 237 243 248 251 255 258 265
352 356 2 5 6 17 20 23 33 24 16 21 13 12 35 45 22 6 10 5 83 185 204 204 237 306 307 268 234 217 246 219 205 229 241 264 285 257 247 238 230 240 244 271 275 268 274 258 234 236 238 242 247 249 253 255 264 268 266 266 260 256 267 296 279 255 275 290 276 270 261 255 269 278 290 298 290 262 232 235 239 236 236 241 248 255 260 265
338 341 348 352 356 2 4 14 29 27 26 24 18 35 50 38 360 345 2 30 345 284 223 223 250 302 311 281 246 212 222 232 246 251 256 275 294 287 260 242 240 246 246 266 274 266 266 260 252 253 250 260 270 267 256 247 256 265 262 250 250 250 258 281 300 291 304 289 272 270 255 245 266 275 287 292 283 280 257 241 237 236 233 234 239 247 255 258
331 333 339 341 346 352 355 3 13 22 31 27 27 44 43 27 355 347 7 333 354 47 327 270 270 295 295 258 237 213 218 241 240 243 264 278 294 293 264 241 248 257 258 258 254 254 255 248 256 265 263 281 284 268 252 249 252 252 246 245 255 266 270 278 286 286 299 279 267 270 262 259 271 273 280 283 286 303 285 243 227 226 231 238 244 246 246 245
331 331 335 335 341 347 349 353 1 20 27 28 39 24 6 357 347 12 140 331 333 82 360 307 288 292 277 264 249 228 238 265 246 242 248 255 272 284 282 247 244 257 266 259 249 253 253 249 261 265 261 272 277 260 255 261 247 231 223 244 270 281 274 271 269 261 251 263 267 269 267 262 262 272 279 281 282 312 328 238 221 226 231 238 255 262 248 236
336 333 336 339 340 343 346 350 360 10 14 18 33 1 352 344 329 286 271 330 334 176 340 327 304 293 282 299 287 246 252 264 253 239 235 249 266 262 270 274 249 247 263 266 261 260 261 263 263 259 258 263 267 255 253 260 243 228 239 245 256 294 292 260 251 235 212 245 262 270 274 264 264 275 279 282 273 261 289 269 230 226 226 234 256 264 254 238
350 347 344 347 347 354 354 348 353 352 342 343 327 349 1 7 335 315 315 342 28 26 347 338 314 287 280 294 291 278 275 263 250 240 237 253 265 252 253 267 254 244 257 268 262 260 270 273 264 257 255 250 247 245 245 249 239 232 239 237 223 216 339 259 234 230 236 240 255 278 295 283 278 280 278 285 280 257 264 270 248 246 244 250 267 259 243 233
359 355 358 9 5 13 10 355 357 344 317 315 299 324 348 323 312 331 332 344 11 353 334 328 325 315 289 282 279 282 281 267 247 249 256 253 253 252 254 260 253 246 258 264 258 263 277 274 264 261 254 244 246 250 249 250 246 241 237 231 225 218 216 241 227 214 260 292 299 298 308 296 283 282 273 280 283 264 272 279 275 284 272 263 269 250 231 228
358 357 15 31 31 38 33 19 9 344 322 325 303 296 310 300 314 339 345 337 332 327 316 310 315 317 296 282 289 285 268 258 243 246 266 257 251 263 269 266 258 251 258 267 273 284 284 275 271 271 266 254 258 259 251 249 250 254 250 233 226 224 227 233 241 258 287 331 308 289 284 282 282 279 269 270 279 273 272 277 281 293 284 266 255 229 228 234
354 353 340 350 32 41 38 28 17 355 335 331 320 314 292 295 321 339 344 339 320 315 322 318 313 318 309 302 312 307 261 261 274 273 277 271 265 266 265 266 263 252 247 252 267 279 277 269 264 275 271 243 255 260 237 236 249 252 259 249 239 241 244 241 246 265 281 303 283 276 282 287 289 288 278 272 278 281 278 276 271 265 269 264 243 229 232 231
352 347 315 313 9 28 29 20 11 359 339 325 318 335 331 308 328 325 303 304 307 314 330 326 313 313 314 315 316 321 342 333 313 307 294 277 268 262 263 275 278 255 234 238 255 266 279 272 261 273 277 245 262 275 234 233 253 253 262 269 267 266 257 248 236 244 245 264 269 258 261 275 281 287 293 289 288 295 294 284 270 263 269 274 256 251 256 248
348 346 330 322 357 11 12 5 357 350 337 325 315 341 353 333 331 312 289 293 303 313 323 315 308 308 311 322 317 308 325 332 317 316 307 279 269 268 276 289 300 295 252 240 245 248 278 286 267 266 271 257 273 291 267 252 250 250 257 266 270 270 256 253 256 237 184 185 266 250 237 253 262 267 283 297 305 322 332 324 311 289 274 276 277 263 257 263
347 344 336 338 350 350 352 350 345 339 330 328 334 341 338 320 313 319 322 320 314 315 320 307 294 296 297 314 318 307 310 317 314 316 314 296 285 282 287 291 292 290 278 262 256 255 266 285 281 268 261 263 273 285 287 278 258 251 254 264 275 275 267 266 262 261 247 216 260 280 244 252 263 267 277 305 324 327 337 357 8 6 258 250 272 267 244 252
345 342 341 345 341 331 330 329 331 332 330 338 335 314 307 289 270 265 302 318 318 317 321 309 290 293 292 290 293 293 295 301 305 307 303 297 294 288 284 281 273 262 264 262 254 260 263 266 277 275 263 261 266 270 280 290 291 283 278 285 287 274 265 274 278 280 287 127 205 294 282 260 254 245 266 311 332 314 297 306 324 344 336 252 284 298 256 240
336 342 345 330 318 313 313 316 323 333 337 339 319 297 295 289 278 279 288 304 317 316 313 309 296 291 294 292 288 290 293 291 291 293 293 294 298 296 275 251 246 229 228 243 243 249 259 259 267 273 267 260 259 255 258 270 281 291 298 300 295 283 272 268 275 274 270 262 263 258 286 273 265 256 270 300 321 309 293 286 291 309 311 284 298 333 308 242
324 327 316 306 304 301 305 312 321 327 319 321 310 286 288 299 301 303 300 297 300 299 294 296 294 285 284 289 290 290 291 289 285 284 284 282 288 297 289 273 279 255 245 256 255 250 255 261 267 271 270 268 264 260 257 260 265 271 279 283 285 288 275 251 239 264 258 253 259 247 247 274 274 268 269 282 284 296 304 285 277 285 282 277 275 272 277 262
317 318 311 304 300 301 316 318 304 281 276 274 283 280 278 288 294 300 302 298 291 287 274 262 268 272 271 275 282 283 285 289 283 275 276 273 272 294 306 291 283 286 272 254 250 256 260 263 272 277 277 275 273 271 266 263 265 268 270 271 277 294 281 259 242 254 253 238 242 228 229 267 269 255 247 257 253 271 299 289 275 268 257 259 262 255 254 254
316 321 304 293 302 318 328 318 296 292 284 271 272 270 267 281 291 298 302 292 271 264 264 260 265 276 280 279 280 277 278 286 283 272 273 271 263 277 301 299 292 291 283 269 262 265 264 261 273 287 293 287 281 278 266 256 257 269 271 263 250 278 306 288 263 263 264 252 243 212 226 258 261 263 264 263 259 270 283 283 276 271 261 255 251 249 249 251
315 310 275 277 303 320 323 319 318 312 297 280 279 282 287 294 295 292 290 283 272 270 274 273 270 275 278 274 270 269 268 275 282 281 275 267 258 257 271 296 303 292 282 285 280 271 269 266 267 268 268 271 269 254 264 282 287 284 282 275 257 262 290 302 301 288 273 274 269 251 252 265 268 273 276 273 271 275 277 275 271 267 263 259 254 256 262 264
321 316 297 292 301 301 272 251 292 290 278 279 287 295 299 302 301 292 284 276 272 276 282 279 271 265 266 270 273 275 271 266 269 276 274 267 268 266 260 275 296 293 285 287 276 268 272 269 267 266 259 259 260 255 259 278 286 283 282 281 273 273 287 296 299 289 281 290 285 270 270 277 275 273 275 278 281 283 283 280 277 274 271 268 268 271 274 271
322 318 306 305 305 289 259 247 258 268 272 278 286 291 293 297 301 295 285 277 277 286 290 285 276 263 265 277 284 285 284 278 274 276 276 271 269 264 247 246 279 304 295 288 282 281 278 270 272 276 272 272 273 270 268 270 274 278 280 279 275 277 287 293 292 289 286 286 281 274 276 280 276 273 272 278 289 295 295 293 289 287 285 284 286 288 287 281
315 310 305 307 305 297 291 287 284 282 281 282 287 291 289 285 283 281 282 282 279 287 293 283 273 272 273 275 286 294 293 289 283 274 270 268 265 258 244 237 245 271 281 281 286 290 284 275 271 269 272 280 282 279 280 274 271 274 274 272 274 280 288 290 285 282 283 283 279 277 278 276 272 271 274 283 294 296 295 293 289 288 290 291 294 294 287 282
307 303 301 300 298 299 299 297 296 293 294 300 304 304 299 292 292 296 297 288 272 266 276 285 286 284 274 263 281 297 295 289 285 272 262 265 265 261 254 245 239 241 254 266 268 276 284 281 275 272 275 280 281 279 277 274 274 274 268 265 272 280 282 279 275 275 278 280 275 275 280 278 271 272 279 287 291 291 290 289 289 290 291 290 289 283 276 274
304 302 300 295 294 297 296 296 296 290 291 300 299 300 302 299 303 301 287 278 273 263 257 266 274 272 263 254 264 287 298 302 299 285 270 268 266 264 263 257 248 242 249 262 267 269 279 282 283 288 284 279 279 279 273 271 275 273 268 269 275 279 278 275 273 274 275 276 275 278 283 277 271 274 282 285 287 291 294 293 292 289 286 281 276 272 272 273
306 304 302 298 297 298 297 297 291 280 290 299 287 285 289 282 289 292 271 257 268 274 271 278 280 274 270 261 252 264 283 294 293 286 278 274 270 265 261 259 256 251 251 260 265 265 276 283 281 285 286 280 277 275 271 274 276 271 270 274 275 273 273 274 275 274 274 275 278 280 280 279 281 286 290 291 293 294 292 288 285 281 279 278 276 275 276 275
304 303 302 299 299 301 298 292 280 273 298 297 272 271 280 268 260 278 278 265 266 268 262 273 277 273 269 263 250 248 256 263 269 274 276 275 273 270 265 259 256 253 252 255 256 255 264 277 277 279 284 282 280 273 272 279 282 273 270 274 275 273 275 276 275 274 275 279 280 279 282 289 293 291 288 290 289 286 282 282 285 287 288 287 288 290 289 285
Height
3105 3104 3104 3103 3102 3102 3101 3100 3099 3099 3098 3098 3097 3097 3097 3097 3097 3097 3097 3097 3097 3097 3097 3097 3098 3098 3098 3099 3099 3099 3100 3100 3101 3102 3102 3103 3104 3104 3105 3106 3106 3107 3109 3110 3111 3113 3114 3116 3117 3119 3120 3121 3122 3124 3124 3125 3126 3128 3130 3130 3130 3130 3128 3128 3130 3134 3135 3133 3132 3131 3132 3132 3132 3134 3134 3134 3134 3133 3134 3137 3138 3139 3138 3137 3138 3141 3144 3146
3105 3104 3103 3103 3102 3101 3101 3100 3099 3099 3098 3097 3097 3097 3096 3096 3096 3096 3096 3096 3096 3096 3096 3097 3097 3097 3098 3098 3098 3099 3099 3100 3100 3101 3102 3102 3103 3103 3104 3105 3105 3107 3108 3109 3110 3112 3114 3115 3117 3118 3120 3121 3122 3124 3125 3125 3126 3127 3129 3129 3129 3129 3127 3128 3132 3134 3134 3134 3133 3131 3131 3132 3132 3133 3134 3134 3134 3133 3134 3136 3138 3138 3139 3138 3140 3142 3143 3145
3104 3103 3103 3102 3102 3101 3100 3100 3099 3098 3098 3097 3097 3096 3096 3096 3096 3096 3096 3096 3096 3096 3096 3096 3096 3097 3097 3097 3098 3098 3099 3099 3100 3100 3101 3101 3102 3102 3103 3104 3105 3106 3107 3108 3109 3110 3112 3113 3115 3118 3120 3121 3122 3123 3124 3126 3127 3126 3127 3128 3127 3127 3127 3130 3132 3133 3132 3132 3132 3130 3130 3131 3131 3132 3134 3134 3134 3135 3134 3135 3137 3137 3138 3139 3140 3142 3143 3144
3103 3103 3103 3102 3101 3101 3100 3100 3099 3098 3098 3097 3096 3096 3096 3096 3096 3095 3095 3095 3095 3095 3096 3096 3096 3096 3097 3097 3098 3098 3098 3099 3099 3100 3100 3101 3101 3102 3102 3103 3104 3105 3107 3108 3109 3110 3111 3111 3113 3117 3120 3121 3122 3122 3123 3125 3127 3127 3127 3126 3126 3126 3127 3130 3131 3131 3131 3129 3130 3129 3130 3131 3131 3132 3133 3134 3135 3136 3134 3132 3135 3136 3137 3138 3140 3143 3143 3144
3103 3103 3102 3102 3101 3101 3100 3100 3099 3098 3098 3097 3096 3096 3096 3095 3095 3095 3095 3095 3095 3095 3096 3096 3096 3096 3097 3097 3097 3098 3098 3099 3099 3099 3100 3100 3101 3101 3102 3103 3104 3105 3106 3108 3109 3111 3112 3111 3112 3116 3119 3120 3121 3122 3123 3124 3126 3126 3127 3125 3126 3126 3127 3129 3129 3129 3128 3128 3129 3130 3131 3131 3132 3132 3133 3134 3135 3136 3134 3131 3132 3133 3133 3135 3140 3142 3142 3143
3102 3102 3102 3101 3101 3100 3100 3099 3099 3098 3098 3097 3097 3096 3096 3095 3095 3095 3095 3095 3095 3095 3095 3096 3096 3096 3096 3097 3097 3097 3098 3099 3099 3099 3100 3100 3101 3101 3102 3103 3104 3105 3106 3108 3109 3111 3112 3111 3112 3115 3118 3120 3120 3121 3122 3124 3126 3126 3126 3125 3126 3126 3127 3127 3126 3128 3128 3127 3128 3130 3131 3131 3132 3133 3133 3135 3135 3133 3133 3132 3130 3129 3130 3134 3139 3141 3141 3143
3101 3101 3101 3101 3101 3100 3100 3099 3099 3098 3098 3097 3097 3096 3096 3096 3095 3095 3095 3095 3095 3095 3095 3095 3095 3096 3096 3097 3097 3097 3098 3099 3099 3099 3099 3100 3101 3101 3102 3103 3104 3105 3106 3108 3109 3112 3112 3112 3114 3116 3118 3120 3120 3120 3122 3124 3126 3126 3125 3125 3126 3127 3127 3125 3124 3126 3128 3128 3128 3129 3131 3132 3132 3133 3133 3135 3134 3132 3133 3133 3130 3129 3130 3133 3137 3140 3141 3142
3101 3101 3101 3101 3100 3100 3100 3099 3099 3098 3098 3097 3097 3097 3096 3096 3096 3095 3095 3095 3095 3095 3095 3095 3095 3096 3096 3096 3097 3097 3099 3099 3099 3099 3099 3100 3101 3102 3102 3103 3104 3106 3107 3108 3110 3112 3112 3113 3115 3117 3119 3120 3119 3120 3122 3124 3125 3125 3124 3124 3126 3127 3126 3123 3123 3125 3127 3128 3128 3128 3130 3131 3132 3132 3133 3134 3134 3133 3133 3134 3132 3130 3131 3133 3136 3138 3139 3140
3100 3100 3100 3100 3100 3100 3100 3099 3099 3098 3098 3098 3097 3097 3097 3096 3096 3095 3095 3095 3095 3095 3095 3095 3095 3095 3096 3096 3097 3097 3099 3099 3099 3099 3099 3101 3102 3102 3103 3104 3105 3106 3107 3109 3111 3111 3111 3113 3116 3118 3120 3120 3120 3120 3122 3124 3123 3123 3123 3124 3125 3125 3125 3122 3122 3123 3125 3128 3128 3128 3130 3131 3131 3131 3133 3134 3134 3133 3132 3133 3134 3132 3132 3134 3135 3137 3138 3138
3100 3100 3100 3100 3099 3099 3099 3099 3099 3098 3098 3097 3097 3097 3097 3096 3096 3096 3095 3095 3095 3095 3095 3095 3095 3096 3096 3096 3097 3098 3098 3099 3099 3099 3100 3101 3102 3103 3104 3104 3105 3106 3108 3110 3111 3111 3111 3114 3116 3119 3120 3120 3120 3119 3121 3122 3122 3122 3122 3123 3124 3124 3124 3123 3122 3122 3124 3126 3127 3128 3128 3129 3130 3130 3132 3133 3133 3132 3131 3131 3133 3132 3132 3133 3134 3135 3136 3136
3099 3099 3099 3099 3099 3099 3099 3099 3099 3098 3098 3098 3097 3097 3097 3096 3096 3096 3096 3096 3096 3096 3096 3096 3096 3096 3096 3097 3097 3098 3098 3098 3099 3100 3101 3102 3103 3104 3104 3105 3106 3107 3108 3109 3110 3112 3113 3115 3116 3117 3118 3118 3118 3118 3118 3120 3121 3121 3121 3122 3123 3123 3123 3122 3121 3122 3123 3124 3126 3127 3127 3128 3129 3129 3130 3132 3133 3132 3130 3130 3131 3131 3130 3131 3133 3133 3134 3133
3099 3099 3099 3099 3099 3099 3099 3099 3098 3098 3098 3098 3097 3097 3097 3097 3096 3096 3096 3096 3096 3096 3096 3096 3096 3097 3097 3097 3098 3098 3098 3098 3100 3101 3101 3102 3103 3104 3105 3105 3106 3106 3107 3107 3109 3112 3114 3114 3114 3114 3115 3116 3117 3118 3117 3118 3119 3120 3120 3120 3121 3121 3121 3121 3121 3122 3124 3123 3124 3125 3126 3126 3127 3127 3129 3131 3133 3131 3130 3130 3130 3129 3128 3128 3130 3131 3131 3131
3099 3099 3099 3099 3099 3099 3099 3099 3098 3098 3098 3098 3098 3097 3097 3097 3097 3096 3096 3096 3096 3097 3097 3097 3097 3097 3098 3098 3099 3099 3099 3099 3100 3101 3101 3102 3103 3104 3105 3105 3106 3106 3106 3106 3107 3109 3111 3111 3112 3112 3114 3114 3115 3116 3116 3117 3118 3118 3119 3120 3120 3120 3119 3119 3119 3121 3122 3122 3123 3124 3124 3124 3124 3125 3127 3128 3130 3130 3129 3130 3129 3127 3126 3126 3127 3129 3129 3128
3099 3099 3099 3099 3099 3099 3099 3098 3098 3098 3098 3098 3098 3097 3097 3097 3097 3097 3097 3097 3097 3097 3097 3098 3098 3098 3098 3099 3099 3099 3099 3100 3100 3101 3101 3102 3103 3104 3104 3105 3106 3106 3107 3107 3107 3108 3109 3109 3110 3111 3113 3113 3113 3114 3115 3116 3117 3117 3118 3119 3119 3118 3117 3117 3118 3119 3120 3121 3121 3122 3122 3122 3122 3123 3125 3125 3126 3127 3128 3129 3129 3126 3126 3125 3125 3127 3126 3126
3099 3099 3098 3098 3098 3098 3098 3098 3098 3098 3098 3098 3097 3097 3097 3097 3097 3097 3097 3097 3097 3097 3098 3098 3098 3098 3098 3099 3099 3099 3099 3100 3101 3101 3102 3102 3103 3103 3104 3105 3106 3106 3107 3107 3107 3108 3108 3109 3110 3111 3113 3114 3114 3115 3115 3115 3116 3117 3117 3117 3117 3117 3115 3114 3116 3117 3118 3118 3118 3120 3120 3121 3121 3121 3122 3122 3122 3124 3126 3127 3128 3126 3125 3124 3124 3125 3124 3124
3099 3099 3098 3098 3098 3098 3098 3098 3098 3097 3097 3097 3097 3097 3097 3097 3097 3097 3097 3097 3097 3098 3098 3098 3098 3098 3098 3098 3098 3099 3099 3100 3101 3101 3102 3102 3103 3103 3104 3104 3105 3106 3107 3107 3108 3108 3108 3109 3109 3110 3112 3113 3113 3115 3115 3115 3115 3116 3116 3116 3116 3115 3113 3112 3113 3114 3115 3116 3116 3118 3120 3119 3120 3119 3118 3118 3118 3121 3124 3125 3127 3126 3124 3124 3123 3123 3123 3122
3100 3099 3099 3098 3098 3097 3097 3097 3097 3097 3097 3097 3097 3097 3097 3097 3097 3097 3097 3098 3098 3098 3098 3098 3098 3099 3098 3098 3099 3099 3099 3100 3100 3101 3101 3102 3102 3103 3103 3105 3105 3106 3106 3107 3107 3108 3108 3108 3109 3110 3111 3111 3112 3114 3114 3114 3113 3114 3115 3114 3114 3114 3113 3111 3111 3111 3113 3114 3115 3117 3118 3118 3119 3119 3118 3118 3118 3120 3123 3124 3126 3126 3124 3123 3122 3122 3122 3121
3101 3100 3099 3099 3098 3097 3097 3097 3097 3097 3097 3097 3097 3097 3097 3097 3097 3097 3097 3098 3098 3098 3098 3098 3099 3099 3099 3099 3099 3099 3098 3099 3100 3100 3101 3102 3102 3102 3103 3104 3105 3106 3106 3106 3107 3107 3108 3108 3109 3109 3110 3111 3112 3113 3112 3112 3113 3113 3113 3113 3113 3113 3112 3111 3110 3110 3112 3113 3114 3115 3116 3116 3117 3118 3119 3120 3120 3121 3122 3123 3124 3124 3123 3122 3121 3121 3120 3120
3101 3101 3100 3099 3098 3098 3097 3097 3097 3096 3097 3097 3097 3097 3097 3097 3097 3097 3097 3097 3098 3098 3098 3098 3099 3099 3100 3100 3099 3099 3099 3099 3100 3100 3101 3101 3102 3102 3103 3103 3104 3105 3106 3106 3106 3107 3107 3108 3108 3109 3109 3110 3111 3112 3112 3112 3112 3112 3112 3112 3112 3112 3111 3111 3109 3109 3110 3111 3113 3113 3114 3115 3116 3117 3118 3119 3120 3120 3121 3122 3122 3123 3122 3121 3121 3120 3119 3119
3102 3101 3100 3100 3099 3098 3098 3097 3097 3097 3097 3097 3097 3097 3096 3096 3096 3096 3096 3097 3097 3097 3098 3098 3098 3099 3100 3100 3100 3099 3100 3100 3100 3100 3100 3101 3101 3101 3102 3103 3103 3104 3105 3105 3106 3107 3107 3108 3108 3108 3109 3110 3111 3111 3111 3111 3111 3110 3111 3111 3111 3110 3110 3111 3110 3110 3111 3111 3112 3113 3113 3114 3115 3116 3117 3117 3117 3118 3119 3120 3120 3121 3120 3120 3120 3119 3118 3118
3102 3101 3101 3100 3099 3099 3098 3098 3097 3097 3097 3097 3097 3096 3096 3096 3096 3096 3096 3096 3096 3096 3097 3098 3098 3098 3100 3101 3100 3100 3100 3100 3099 3100 3100 3100 3101 3101 3102 3102 3103 3103 3103 3104 3105 3106 3107 3107 3107 3107 3108 3109 3110 3110 3110 3109 3109 3109 3109 3110 3110 3110 3110 3112 3112 3111 3112 3112 3112 3113 3113 3113 3113 3114 3115 3116 3116 3116 3117 3118 3118 3118 3118 3118 3118 3118 3118 3118
3102 3102 3101 3101 3100 3099 3099 3098 3098 3097 3097 3097 3097 3096 3096 3096 3096 3095 3095 3095 3096 3096 3097 3097 3097 3098 3099 3100 3100 3100 3100 3099 3099 3099 3099 3100 3101 3101 3101 3102 3102 3102 3103 3104 3104 3105 3106 3105 3105 3106 3108 3108 3109 3109 3108 3108 3109 3109 3108 3109 3109 3109 3109 3110 3111 3110 3110 3111 3111 3111 3110 3110 3111 3111 3112 3113 3114 3114 3115 3115 3116 3116 3116 3116 3116 3116 3117 3118
3103 3102 3101 3101 3100 3100 3099 3098 3098 3097 3097 3097 3097 3097 3096 3095 3095 3095 3095 3095 3095 3096 3096 3096 3097 3097 3098 3099 3099 3099 3099 3099 3099 3098 3099 3100 3100 3100 3101 3101 3102 3102 3103 3104 3104 3104 3105 3104 3104 3105 3106 3107 3107 3107 3106 3107 3107 3108 3108 3107 3108 3109 3109 3109 3110 3109 3109 3110 3110 3109 3108 3108 3108 3109 3109 3110 3111 3111 3111 3112 3113 3113 3114 3114 3114 3115 3116 3116
3103 3102 3102 3101 3101 3100 3099 3099 3098 3098 3097 3097 3096 3096 3095 3095 3095 3095 3095 3095 3095 3095 3095 3096 3097 3097 3097 3098 3098 3098 3098 3098 3098 3098 3098 3100 3101 3100 3100 3101 3102 3102 3102 3103 3103 3103 3103 3103 3104 3104 3105 3105 3106 3106 3105 3105 3106 3106 3107 3106 3107 3108 3108 3108 3109 3109 3109 3109 3109 3109 3107 3106 3106 3106 3106 3107 3107 3106 3106 3109 3110 3111 3111 3112 3113 3114 3115 3115
3103 3103 3102 3102 3101 3100 3100 3099 3099 3098 3097 3096 3096 3096 3096 3096 3096 3095 3095 3095 3095 3094 3095 3096 3097 3097 3097 3097 3097 3098 3098 3098 3098 3097 3097 3099 3100 3100 3100 3101 3101 3101 3101 3102 3102 3101 3101 3101 3103 3103 3103 3104 3105 3105 3105 3105 3104 3105 3105 3106 3106 3106 3107 3107 3107 3107 3107 3107 3108 3109 3106 3103 3104 3104 3103 3103 3103 3102 3103 3105 3107 3108 3108 3110 3111 3112 3113 3115
3104 3103 3102 3102 3101 3101 3100 3100 3099 3098 3097 3096 3096 3096 3097 3097 3097 3096 3096 3095 3095 3094 3095 3096 3096 3096 3097 3097 3097 3097 3097 3097 3097 3097 3098 3099 3099 3099 3099 3100 3100 3100 3100 3101 3101 3100 3099 3100 3101 3100 3101 3102 3102 3103 3103 3104 3104 3104 3104 3105 3105 3105 3106 3105 3105 3106 3105 3105 3106 3108 3106 3102 3101 3101 3100 3101 3101 3100 3101 3102 3103 3105 3106 3107 3108 3109 3110 3112
3104 3103 3103 3102 3102 3101 3101 3100 3099 3098 3097 3097 3097 3097 3098 3097 3097 3097 3096 3096 3095 3094 3095 3095 3096 3097 3097 3097 3097 3097 3096 3096 3096 3097 3098 3098 3098 3098 3098 3098 3099 3099 3100 3100 3099 3099 3099 3098 3099 3099 3099 3100 3100 3101 3102 3103 3103 3103 3103 3104 3104 3105 3105 3104 3104 3105 3104 3104 3105 3106 3105 3102 3099 3098 3098 3099 3099 3099 3100 3100 3101 3102 3103 3103 3104 3106 3107 3109
3104 3103 3103 3102 3102 3101 3101 3100 3099 3099 3098 3098 3098 3098 3098 3098 3098 3097 3097 3097 3096 3094 3094 3095 3096 3096 3096 3096 3096 3096 3096 3097 3097 3097 3097 3098 3098 3097 3096 3097 3098 3097 3098 3099 3098 3098 3098 3097 3098 3098 3099 3099 3099 3099 3100 3101 3102 3101 3102 3104 3103 3104 3104 3103 3103 3103 3103 3103 3103 3103 3104 3102 3098 3096 3097 3097 3097 3097 3098 3098 3098 3099 3101 3101 3102 3103 3104 3106
3104 3103 3103 3102 3102 3101 3100 3100 3100 3099 3099 3098 3098 3098 3098 3098 3098 3097 3098 3098 3096 3094 3095 3095 3096 3096 3096 3096 3095 3096 3096 3097 3097 3097 3097 3097 3097 3096 3096 3096 3096 3095 3096 3097 3096 3096 3097 3097 3097 3097 3097 3097 3097 3098 3099 3100 3100 3100 3101 3102 3102 3102 3102 3102 3102 3102 3102 3102 3100 3101 3103 3101 3097 3096 3097 3096 3095 3095 3095 3095 3096 3097 3099 3099 3101 3102 3102 3103
3103 3103 3102 3102 3101 3101 3100 3100 3100 3099 3099 3099 3098 3098 3098 3098 3098 3098 3099 3098 3095 3095 3095 3095 3095 3095 3095 3095 3094 3095 3095 3096 3096 3096 3096 3096 3096 3096 3095 3095 3096 3095 3094 3094 3094 3094 3095 3096 3095 3096 3096 3095 3096 3096 3097 3099 3099 3099 3100 3100 3100 3101 3101 3101 3101 3101 3102 3101 3099 3099 3101 3101 3097 3095 3095 3095 3095 3094 3091 3091 3094 3095 3097 3098 3099 3101 3101 3102
3103 3103 3102 3102 3101 3101 3100 3100 3100 3099 3099 3099 3098 3098 3098 3098 3098 3098 3098 3096 3094 3095 3096 3095 3095 3095 3094 3094 3093 3093 3094 3094 3094 3094 3094 3094 3095 3095 3095 3095 3095 3095 3094 3093 3093 3093 3094 3094 3094 3094 3094 3095 3096 3095 3096 3097 3098 3098 3099 3099 3099 3100 3100 3100 3100 3102 3103 3100 3097 3097 3098 3100 3097 3094 3094 3094 3095 3094 3091 3091 3092 3094 3095 3097 3098 3098 3099 3099
3103 3102 3102 3101 3101 3100 3100 3100 3099 3099 3099 3099 3099 3098 3098 3098 3097 3097 3096 3094 3094 3096 3095 3095 3095 3095 3094 3094 3093 3093 3093 3093 3093 3093 3093 3093 3093 3093 3093 3094 3094 3094 3093 3093 3093 3093 3093 3092 3092 3092 3092 3093 3095 3094 3095 3096 3096 3097 3097 3098 3099 3100 3101 3101 3100 3100 3100 3097 3095 3096 3097 3097 3095 3093 3093 3093 3094 3094 3093 3093 3094 3094 3095 3096 3096 3096 3096 3097
3103 3102 3102 3101 3101 3100 3100 3100 3099 3099 3099 3099 3099 3098 3098 3098 3097 3096 3095 3095 3095 3095 3095 3095 3095 3094 3094 3094 3093 3093 3093 3092 3092 3092 3092 3092 3091 3091 3091 3092 3093 3093 3092 3092 3092 3091 3091 3090 3090 3091 3090 3091 3092 3093 3094 3094 3095 3095 3095 3096 3098 3100 3102 3102 3099 3098 3097 3095 3095 3096 3096 3094 3092 3092 3092 3092 3092 3093 3093 3094 3094 3094 3095 3095 3095 3095 3095 3095
3103 3102 3102 3101 3100 3100 3100 3100 3099 3099 3099 3099 3099 3098 3098 3098 3097 3095 3095 3095 3095 3095 3094 3094 3093 3093 3093 3093 3093 3092 3092 3091 3091 3091 3091 3091 3090 3090 3091 3091 3092 3092 3091 3091 3090 3090 3089 3089 3089 3090 3089 3089 3091 3091 3092 3093 3093 3093 3094 3095 3095 3096 3099 3099 3096 3096 3095 3094 3094 3095 3095 3093 3091 3091 3090 3090 3091 3091 3092 3092 3093 3093 3094 3093 3093 3093 3094 3094
3103 3102 3102 3101 3101 3100 3100 3099 3099 3099 3099 3098 3098 3098 3097 3097 3096 3095 3094 3094 3094 3094 3093 3093 3093 3092 3092 3092 3091 3090 3090 3090 3089 3090 3090 3089 3089 3090 3090 3091 3091 3091 3090 3089 3088 3088 3088 3087 3088 3089 3089 3089 3089 3089 3091 3092 3092 3092 3092 3093 3092 3093 3094 3093 3093 3093 3093 3093 3092 3092 3093 3091 3090 3090 3089 3089 3090 3090 3091 3091 3092 3092 3093 3092 3092 3092 3093 3094
3103 3102 3102 3101 3100 3100 3099 3099 3099 3098 3098 3098 3098 3097 3097 3097 3096 3095 3094 3094 3094 3094 3093 3094 3093 3092 3091 3091 3090 3089 3089 3089 3088 3087 3088 3088 3088 3088 3089 3089 3088 3087 3087 3087 3087 3087 3086 3086 3086 3087 3087 3088 3088 3088 3088 3089 3089 3090 3091 3090 3090 3091 3092 3091 3091 3091 3092 3093 3091 3090 3090 3089 3089 3089 3088 3089 3089 3090 3091 3091 3090 3091 3091 3091 3091 3091 3092 3093
3102 3101 3101 3100 3099 3099 3099 3098 3098 3098 3098 3097 3097 3097 3096 3096 3096 3096 3093 3093 3094 3094 3094 3094 3092 3092 3091 3090 3089 3088 3088 3088 3087 3086 3086 3086 3086 3087 3087 3087 3085 3085 3085 3085 3085 3086 3085 3084 3085 3085 3084 3085 3087 3087 3087 3087 3088 3089 3089 3089 3090 3090 3090 3090 3090 3090 3092 3093 3089 3087 3088 3088 3088 3088 3087 3088 3090 3090 3090 3089 3089 3089 3089 3089 3090 3090 3091 3091
3100 3100 3100 3099 3098 3098 3098 3098 3097 3097 3097 3096 3096 3096 3095 3095 3096 3094 3092 3092 3093 3093 3093 3093 3092 3091 3090 3089 3088 3087 3087 3087 3087 3086 3086 3085 3085 3084 3085 3084 3084 3085 3084 3083 3084 3085 3084 3083 3083 3084 3084 3084 3084 3085 3085 3086 3087 3087 3088 3089 3089 3088 3087 3088 3089 3089 3091 3092 3088 3085 3086 3086 3086 3087 3087 3089 3089 3089 3088 3087 3088 3087 3087 3088 3089 3089 3090 3090
3099 3098 3098 3098 3097 3097 3097 3097 3097 3096 3096 3096 3095 3094 3095 3096 3095 3093 3091 3091 3092 3092 3092 3092 3091 3090 3089 3088 3087 3086 3086 3086 3086 3085 3085 3085 3084 3083 3083 3083 3083 3084 3082 3082 3083 3084 3084 3083 3081 3082 3084 3084 3082 3083 3083 3084 3086 3086 3086 3087 3087 3086 3085 3085 3086 3087 3088 3089 3087 3085 3084 3082 3083 3086 3087 3088 3088 3087 3087 3086 3085 3084 3084 3085 3085 3086 3088 3088
3098 3097 3097 3096 3096 3096 3096 3096 3096 3096 3095 3094 3094 3094 3094 3094 3093 3091 3091 3091 3090 3090 3090 3090 3090 3089 3088 3087 3087 3086 3085 3085 3084 3085 3084 3084 3084 3083 3082 3081 3081 3082 3081 3080 3081 3082 3082 3083 3081 3081 3083 3083 3082 3082 3083 3083 3084 3085 3085 3084 3084 3084 3083 3082 3084 3085 3086 3087 3087 3086 3083 3079 3081 3085 3085 3086 3087 3086 3086 3085 3083 3082 3082 3083 3083 3084 3085 3085
3098 3097 3097 3096 3096 3096 3095 3095 3095 3095 3094 3094 3094 3093 3093 3092 3091 3090 3091 3090 3089 3089 3089 3088 3088 3088 3087 3086 3086 3085 3085 3084 3084 3084 3083 3083 3083 3082 3080 3079 3079 3080 3080 3080 3080 3080 3081 3081 3080 3080 3081 3081 3080 3081 3082 3082 3082 3083 3083 3083 3082 3082 3081 3081 3082 3082 3084 3086 3085 3087 3083 3075 3077 3083 3084 3084 3085 3084 3083 3082 3081 3080 3081 3081 3081 3081 3082 3083
3097 3096 3096 3096 3095 3095 3094 3094 3094 3093 3093 3093 3093 3092 3092 3091 3090 3090 3090 3090 3089 3088 3088 3088 3087 3086 3086 3085 3085 3084 3084 3083 3083 3082 3082 3082 3081 3080 3079 3078 3078 3078 3079 3079 3079 3078 3079 3080 3079 3078 3078 3078 3078 3080 3080 3080 3080 3080 3081 3081 3080 3080 3079 3079 3080 3079 3081 3083 3083 3085 3082 3073 3073 3081 3082 3082 3082 3081 3080 3079 3078 3078 3079 3079 3079 3079 3080 3080
3096 3095 3095 3094 3093 3093 3093 3092 3092 3092 3092 3091 3090 3090 3090 3089 3089 3089 3088 3088 3088 3087 3086 3085 3085 3084 3084 3084 3083 3083 3083 3082 3081 3080 3080 3079 3079 3079 3078 3077 3077 3077 3078 3078 3078 3077 3078 3078 3077 3075 3074 3075 3075 3077 3078 3079 3079 3078 3078 3078 3078 3078 3078 3077 3077 3078 3079 3079 3079 3082 3080 3072 3072 3077 3079 3079 3080 3079 3078 3077 3076 3076 3076 3077 3077 3077 3078 3078
3095 3094 3094 3092 3092 3092 3092 3091 3090 3090 3090 3088 3088 3088 3087 3087 3087 3087 3087 3086 3085 3084 3083 3083 3083 3083 3082 3082 3082 3081 3081 3080 3079 3079 3079 3078 3078 3078 3077 3076 3076 3076 3076 3076 3077 3077 3077 3077 3076 3074 3073 3072 3073 3074 3075 3076 3076 3075 3075 3075 3075 3075 3076 3076 3076 3077 3076 3076 3076 3078 3076 3071 3070 3073 3076 3077 3077 3075 3075 3074 3074 3074 3074 3075 3075 3074 3075 3075
3093 3093 3092 3091 3091 3091 3090 3090 3089 3089 3088 3086 3085 3085 3085 3085 3085 3085 3084 3083 3082 3082 3081 3081 3081 3081 3080 3080 3079 3079 3079 3078 3077 3076 3077 3076 3076 3076 3077 3076 3075 3074 3073 3073 3073 3074 3075 3074 3074 3074 3073 3072 3071 3073 3073 3073 3072 3071 3071 3072 3071 3072 3073 3073 3074 3075 3074 3074 3074 3074 3072 3068 3067 3070 3072 3074 3074 3073 3072 3072 3072 3072 3072 3072 3072 3072 3073 3073
3091 3091 3090 3090 3091 3090 3089 3088 3087 3087 3086 3084 3083 3083 3082 3082 3082 3082 3081 3081 3080 3080 3079 3078 3078 3078 3077 3077 3077 3076 3076 3076 3075 3074 3074 3074 3074 3074 3074 3074 3074 3072 3071 3071 3070 3071 3072 3071 3071 3072 3070 3069 3069 3070 3072 3072 3070 3068 3067 3067 3068 3069 3070 3071 3072 3072 3072 3071 3070 3069 3069 3067 3065 3066 3068 3070 3071 3071 3070 3070 3070 3070 3070 3070 3070 3070 3071 3071
3090 3088 3087 3088 3088 3088 3087 3087 3086 3085 3084 3083 3081 3081 3080 3079 3079 3079 3079 3078 3078 3078 3077 3076 3075 3075 3075 3075 3075 3074 3073 3073 3073 3072 3072 3072 3071 3070 3070 3071 3071 3069 3069 3069 3068 3069 3069 3068 3068 3069 3066 3066 3067 3067 3069 3070 3069 3067 3066 3064 3064 3066 3068 3069 3069 3069 3070 3069 3066 3065 3067 3067 3063 3062 3063 3066 3067 3068 3068 3068 3068 3067 3067 3067 3068 3068 3067 3067
3088 3087 3085 3085 3085 3085 3084 3084 3083 3082 3082 3081 3079 3078 3078 3077 3077 3077 3076 3076 3076 3077 3076 3074 3073 3073 3073 3073 3074 3073 3072 3071 3070 3070 3069 3068 3066 3065 3066 3067 3067 3067 3068 3068 3067 3067 3067 3064 3065 3065 3063 3063 3065 3065 3067 3067 3066 3065 3064 3062 3061 3063 3065 3066 3066 3066 3067 3066 3064 3063 3064 3063 3061 3059 3059 3062 3064 3065 3065 3065 3065 3064 3064 3064 3064 3063 3063 3062
3086 3084 3083 3083 3082 3082 3081 3080 3080 3079 3078 3078 3077 3076 3076 3076 3075 3075 3075 3074 3074 3074 3073 3071 3071 3071 3071 3071 3072 3071 3068 3067 3067 3067 3066 3065 3063 3063 3064 3064 3064 3065 3066 3065 3065 3066 3064 3062 3062 3062 3060 3060 3062 3063 3064 3064 3063 3061 3058 3058 3060 3061 3062 3062 3062 3062 3063 3062 3061 3060 3059 3058 3058 3057 3057 3059 3061 3061 3061 3061 3061 3060 3060 3059 3059 3059 3059 3059
3082 3081 3081 3080 3080 3079 3078 3078 3077 3076 3075 3076 3075 3075 3075 3074 3074 3074 3073 3071 3070 3069 3069 3069 3068 3068 3068 3068 3068 3068 3066 3065 3064 3064 3064 3063 3062 3062 3062 3062 3062 3063 3062 3062 3062 3063 3062 3060 3059 3060 3058 3056 3059 3061 3061 3060 3060 3056 3053 3054 3058 3059 3058 3058 3058 3059 3059 3058 3057 3058 3056 3053 3053 3056 3056 3056 3056 3057 3057 3056 3056 3056 3055 3055 3054 3055 3055 3055
3079 3078 3077 3076 3076 3077 3076 3075 3075 3074 3074 3074 3074 3074 3073 3072 3072 3070 3069 3068 3067 3067 3069 3068 3066 3065 3065 3065 3066 3066 3065 3063 3062 3061 3061 3060 3060 3060 3060 3060 3060 3061 3060 3060 3060 3059 3059 3057 3057 3058 3056 3053 3056 3059 3058 3058 3057 3052 3049 3052 3055 3055 3054 3054 3055 3055 3055 3055 3054 3055 3053 3050 3050 3053 3054 3053 3052 3051 3051 3051 3051 3052 3051 3050 3050 3051 3051 3051
3077 3076 3074 3073 3073 3074 3073 3072 3072 3072 3072 3072 3072 3071 3071 3069 3068 3066 3065 3065 3066 3066 3066 3065 3062 3062 3062 3062 3063 3063 3061 3060 3058 3058 3057 3057 3056 3057 3057 3057 3057 3058 3057 3058 3057 3056 3057 3055 3055 3057 3054 3050 3054 3057 3055 3055 3053 3046 3045 3049 3051 3051 3051 3051 3051 3051 3052 3053 3052 3051 3050 3050 3049 3049 3048 3048 3047 3047 3046 3046 3047 3048 3047 3046 3047 3047 3047 3046